Lancaster, CA

10:48 AM PDT on May 27, 2018 (GMT -0700)
Gen Fox

Weather History for KWJF - March, 2012

Change the Weather History Date:

Wednesday, March 14, 2012

  Actual Average Record
Temperature  
Mean Temperature 59 °F 53 °F  
Max Temperature 72 °F 67 °F 88 °F (2013)
Min Temperature 45 °F 39 °F 21 °F (1988)
Degree Days  
Heating Degree Days 6    
Month to date heating degree days 198  
Since 1 July heating degree days 2651  
Cooling Degree Days 0    
Month to date cooling degree days 0  
Year to date cooling degree days 0  
Growing Degree Days 8 (Base 50)    
Moisture  
Dew Point 37 °F    
Average Humidity 50    
Maximum Humidity 71    
Minimum Humidity 28    
Precipitation  
Precipitation 0.00 in 0.04 in 0.50 in (1998)
Month to date precipitation 0.00 0.64  
Year to date precipitation 0.41 3.92  
Since 1 July precipitation 1.76  
Snow  
Snow 0.00 in - 0.00 in ()
Month to date snowfall 0.0  
Since 1 July snowfall 0.0  
Snow Depth 0.00 in    
Sea Level Pressure  
Sea Level Pressure 30.06 in    
Wind  
Wind Speed 13 mph (WSW)    
Max Wind Speed 20 mph    
Max Gust Speed 25 mph    
Visibility 10 miles    
Events      
T = Trace of Precipitation, MM = Missing Value Source: NWS Daily Summary

Daily Weather History Graph

Daily Weather History Graph

Search for Another Location

Airport or City:

Astronomy

Mar. 14, 2012 Rise Set
Actual Time 7:04 AM PDT 7:00 PM PDT
Civil Twilight 6:38 AM PDT 7:25 PM PDT
Nautical Twilight 6:09 AM PDT 7:54 PM PDT
Astronomical Twilight 5:40 AM PDT 8:24 PM PDT
Moon 1:24 AM PDT (3/14) 11:35 AM PDT (3/14)
Length of Visible Light 12h 46m
Length of Day
11h 56m
Waning Gibbous, 53% of the Moon is Illuminated
Mar 14
Waning Gibbous
Mar 14
Last Quarter
Mar 22
New
Mar 30
First Quarter
Apr 6
Full

Hourly Weather History & Observations

Time (PDT) Temp. Windchill Dew Point Humidity Pressure Visibility Wind Dir Wind Speed Gust Speed Precip Events Conditions
12:56 AM 50.0 °F - 39.0 °F 66% 30.05 in 10.0 mi WSW 9.2 mph - N/A   Clear
1:56 AM 48.0 °F - 37.9 °F 68% 30.05 in 10.0 mi SW 5.8 mph - N/A   Clear
2:56 AM 46.0 °F 43.9 °F 37.9 °F 73% 30.04 in 10.0 mi West 4.6 mph - N/A   Clear
3:56 AM 46.9 °F - 37.9 °F 71% 30.03 in 10.0 mi WSW 6.9 mph - N/A   Clear
4:56 AM 50.0 °F - 37.9 °F 63% 30.03 in 10.0 mi West 17.3 mph - N/A   Clear
5:56 AM 48.9 °F - 37.0 °F 64% 30.04 in 10.0 mi West 17.3 mph - N/A   Clear
6:56 AM 46.9 °F - 37.0 °F 68% 30.06 in 10.0 mi West 13.8 mph - N/A   Clear
7:56 AM 50.0 °F - 37.9 °F 63% 30.07 in 10.0 mi WSW 12.7 mph - N/A   Clear
8:56 AM 55.9 °F - 37.9 °F 51% 30.09 in 10.0 mi SW 10.4 mph - N/A   Clear
9:56 AM 60.1 °F - 37.9 °F 44% 30.09 in 10.0 mi SW 11.5 mph - N/A   Clear
10:56 AM 64.9 °F - 33.1 °F 31% 30.08 in 10.0 mi West 8.1 mph - N/A   Clear
11:56 AM 66.9 °F - 33.1 °F 28% 30.06 in 10.0 mi SW 11.5 mph - N/A   Clear
12:56 PM 69.1 °F - 36.0 °F 30% 30.04 in 10.0 mi WSW 17.3 mph 23.0 mph N/A   Clear
1:56 PM 70.0 °F - 36.0 °F 29% 30.03 in 10.0 mi SW 13.8 mph 20.7 mph N/A   Clear
2:56 PM 71.1 °F - 37.0 °F 29% 30.02 in 10.0 mi SW 15.0 mph - N/A   Clear
3:56 PM 70.0 °F - 37.0 °F 30% 30.03 in 10.0 mi WSW 15.0 mph 21.9 mph N/A   Clear
4:56 PM 69.1 °F - 37.0 °F 31% 30.03 in 10.0 mi SW 16.1 mph - N/A   Clear
5:56 PM 66.0 °F - 37.9 °F 36% 30.04 in 10.0 mi WSW 19.6 mph - N/A   Clear
6:56 PM 61.0 °F - 39.0 °F 44% 30.07 in 10.0 mi SW 13.8 mph - N/A   Clear
7:56 PM 57.0 °F - 39.9 °F 53% 30.09 in 10.0 mi WSW 13.8 mph - N/A   Clear
8:56 PM 55.9 °F - 37.9 °F 51% 30.09 in 10.0 mi WSW 15.0 mph - N/A   Clear
9:56 PM 54.0 °F - 39.0 °F 57% 30.12 in 10.0 mi WSW 12.7 mph - N/A   Clear
10:56 PM 54.0 °F - 39.0 °F 57% 30.11 in 10.0 mi WSW 11.5 mph - N/A   Clear
11:56 PM 53.1 °F - 39.0 °F 59% 30.11 in 10.0 mi SW 9.2 mph - N/A   Clear